INTELSAT 905 (IS-905) (27438 NORAD) Tracking and Keplerian Element Data

This shows tracking and keplerian element data for the satellite.

Feedback or suggestion? Click here.




ElementValue
Catalog27438
NameINTELSAT 905 (IS-905)
Epoch Orbit8055
Epoch Day160.13591169
Epoch Year2024
RAAN78.6039
Inclination4.8845
Eccentricity0.0002318
Argument of Perigee350.0038
Mean Anonmoly212.8102
Mean Motion1.00270931
Decay Rate-1.89E-06
L11 27438U 02027A 24160.13591169 -.00000189 00000+0 00000+0 0 9990
L22 27438 4.8845 78.6039 0002318 350.0038 212.8102 1.00270931 80558



Live tracking and technical data element details for INTELSAT 905 (IS-905) (NORAD 27438). INTELSAT 905 (IS-905) can be tracked NOW for your location showing map with azimuth and elevation plus other details from your city location.







IsCatalogInMostPopularTable: catalog: 27438, numindb: 628
Update: records affected: 1



GetName: 27438 INTELSAT 905 (IS-905)

Hit Count: updated at: Mon, 17 Jun 2024 22:27:43 GMT